This is the latest recevied weather packets stored in our database for station/object K0VSC-1. If no packets are shown the sender has not sent any weather packets the latest 10 day(s).
| Time | Temp. | Humidity | Pressure | Rain* | Wind** | Luminosity | Snow |
|---|---|---|---|---|---|---|---|
| 1777499300 | 8.89° C | 51% | 1017.1 hPa | 0 mm | - | 156 W/m² | - |
| 1777499000 | 8.89° C | 54% | 1017.2 hPa | 0 mm | - | 650 W/m² | - |
| 1777498700 | 8.89° C | 53% | 1017.3 hPa | 0 mm | - | 134 W/m² | - |
| 1777498400 | 8.89° C | 52% | 1017.4 hPa | 0 mm | - | 118 W/m² | - |
| 1777498100 | 8.89° C | 50% | 1017.3 hPa | 0 mm | - | 169 W/m² | - |
| 1777497800 | 8.89° C | 52% | 1017.3 hPa | 0 mm | - | 197 W/m² | - |
| 1777497500 | 9.44° C | 51% | 1017.4 hPa | 0 mm | - | 202 W/m² | - |
| 1777497200 | 9.44° C | 51% | 1017.4 hPa | 0 mm | - | 232 W/m² | - |
| 1777496900 | 9.44° C | 54% | 1017.3 hPa | 0 mm | - | 417 W/m² | - |
| 1777496600 | 8.89° C | 54% | 1017.6 hPa | 0 mm | - | 163 W/m² | - |
| 1777496300 | 8.89° C | 50% | 1017.5 hPa | 0 mm | - | 121 W/m² | - |
| 1777496000 | 8.89° C | 51% | 1017.6 hPa | 0 mm | - | 107 W/m² | - |
| 1777495700 | 8.89° C | 50% | 1017.6 hPa | 0 mm | - | 142 W/m² | - |
| 1777495400 | 9.44° C | 52% | 1017.6 hPa | 0 mm | - | 244 W/m² | - |
| 1777495100 | 8.89° C | 52% | 1017.6 hPa | 0 mm | - | 350 W/m² | - |
| 1777494800 | 8.89° C | 54% | 1017.6 hPa | 0 mm | - | 288 W/m² | - |
| 1777494500 | 8.89° C | 50% | 1017.7 hPa | 0 mm | - | 236 W/m² | - |
| 1777494200 | 8.89° C | 52% | 1017.8 hPa | 0 mm | - | 199 W/m² | - |
| 1777493900 | 8.89° C | 51% | 1017.7 hPa | 0.25 mm | - | 227 W/m² | - |
| 1777493600 | 8.89° C | 54% | 1017.8 hPa | 0.25 mm | - | 332 W/m² | - |
| 1777493300 | 8.89° C | 50% | 1017.8 hPa | 0.25 mm | - | 353 W/m² | - |
| 1777493000 | 8.89° C | 51% | 1017.9 hPa | 0.25 mm | - | 615 W/m² | - |
| 1777492700 | 8.89° C | 50% | 1017.9 hPa | 0.25 mm | - | 255 W/m² | - |
| 1777492400 | 8.89° C | 51% | 1018 hPa | 0.25 mm | - | 246 W/m² | - |
| 1777492100 | 8.89° C | 48% | 1017.9 hPa | 0.25 mm | - | 969 W/m² | - |
* Rain latest hour (hover to see other rain measurements)
** Current wind speed in m/s (hover to see current wind gust speed)